User: anonymous   Login
Location: Unspecified
(0.0000°N, 0.0000°E)
Time: 19:04:23
(UTC+00:00)
Language:

SICRAL 2 - Orbit

View from above orbital plane
View from above orbital plane
View from above satellite
View from above satellite

Ground track
Ground track

The orbit data is extracted from the following two-line orbital elements,

1 40614U 15022B   19056.87646463 0.00000000  00000-0  00000-0 0    03
2 40614   0.0330 147.9469 0005459  89.4074 270.6753  1.00270000    08
Epoch (UTC): 25 February 2019 21:02:06
Eccentricity: 0.0005459
inclination: 0.0330°
perigee height: 35764 km
apogee height: 35810 km
right ascension of ascending node: 147.9469°
argument of perigee: 89.4074°
revolutions per day: 1.00270000
mean anomaly at epoch: 270.6753°
orbit number at epoch: 0

The dashed part of the orbit path shows where the satellite is in the earth's shadow,  

DLR